User: anonymous   Login
Location: Newark
(49.1000°N, 0.4667°W)
Time: 07:00:00
(UTC+00:00)
Language:

M-CUBED/EXP-1 PRIME - Orbit

View from above orbital plane
View from above orbital plane
View from above satellite
View from above satellite

Ground track
Ground track

The orbit data is extracted from the following two-line orbital elements,

1 37855U 11061F   21300.19009857  .00006565  00000-0  31412-3 0  9998
2 37855 101.7241 292.0576 0164698  38.6808 322.6066 15.08443271546032
Epoch (UTC): 27 October 2021 04:33:44
Eccentricity: 0.0164698
inclination: 101.7241°
perigee height: 427 km
apogee height: 655 km
right ascension of ascending node: 292.0576°
argument of perigee: 38.6808°
revolutions per day: 15.08443271
mean anomaly at epoch: 322.6066°
orbit number at epoch: 54603

The dashed part of the orbit path shows where the satellite is in the earth's shadow,  

DLR